1515679201.13,52922,11.44,73006.3,-6.09,-27.23,-28.63,0,*5A
1515679202.41,52923,11.44,73004.5,-6.07,-27.23,-28.75,0,*52
1515679203.67,52924,11.44,73004.0,-6.07,-27.13,-28.59,0,*58
1515679204.9,52925,11.44,73004.3,-6.09,-27.29,-28.79,0,*5C
1515679206.19,52926,11.44,73008.3,-6.07,-27.23,-28.63,0,*50
1515679207.45,52927,11.44,73006.3,-6.07,-27.13,-28.63,0,*52
1515679208.73,52928,11.44,73006.8,-6.07,-27.23,-28.59,0,*57
1515679210.0,52929,11.44,73008.0,-6.07,-27.13,-28.63,0,*5C
1515679211.26,52930,11.44,73006.8,-6.07,-27.13,-28.63,0,*54
1515679212.53,52931,11.44,73004.3,-6.07,-27.29,-28.63,0,*5C
1515679213.81,52932,11.44,73006.5,-6.07,-27.23,-28.63,0,*55
1515679215.08,52933,11.44,73006.8,-6.07,-27.29,-28.63,0,*5E
1515679216.34,52934,11.44,73008.0,-6.07,-27.29,-28.75,0,*5E
1515679217.6,52935,11.44,73004.8,-6.07,-27.13,-28.59,0,*58
1515679218.86,52936,11.44,73004.3,-6.07,-27.13,-28.63,0,*52
1515679220.15,52937,11.44,73006.5,-6.07,-27.39,-28.91,0,*56
1515679221.4,52938,11.44,73004.5,-6.07,-27.45,-28.97,0,*54
1515679222.68,52939,11.44,73006.8,-6.07,-27.23,-28.75,0,*59
1515679223.93,52940,11.44,73008.3,-6.09,-27.39,-28.79,0,*5E
1515679225.18,52941,11.44,73004.3,-6.09,-27.39,-28.75,0,*53
1515679226.43,52942,11.44,73004.8,-6.09,-27.29,-28.63,0,*56
1515679227.66,52943,11.44,73008.0,-6.09,-27.29,-28.79,0,*5C
1515679228.91,52944,11.44,73008.8,-6.09,-27.39,-28.79,0,*5A
1515679230.16,52945,11.44,73004.5,-6.09,-27.39,-28.75,0,*57
1515679231.39,52946,11.44,73002.8,-6.09,-27.29,-28.79,0,*59
1515679232.64,52947,11.44,73006.5,-6.09,-27.39,-28.75,0,*55
1515679233.92,52948,11.44,73008.8,-6.07,-27.39,-28.79,0,*58
1515679235.18,52949,11.44,73008.5,-6.07,-27.29,-28.75,0,*54
1515679236.43,52950,11.44,73004.3,-6.09,-27.39,-28.75,0,*53
1515679237.69,52951,11.44,73004.3,-6.09,-27.45,-28.75,0,*59
1515679238.97,52952,11.44,73004.0,-6.07,-27.45,-28.79,0,*58
1515679240.23,52953,11.44,73010.5,-6.09,-27.23,-28.63,0,*5C
1515679241.49,52954,11.44,73006.0,-6.09,-27.23,-28.63,0,*5B
1515679242.74,52955,11.44,73006.0,-6.09,-27.39,-28.75,0,*56
1515679244.02,52956,11.44,73006.5,-6.07,-27.39,-28.79,0,*57
1515679245.3,52957,11.44,73008.8,-6.11,-27.45,-28.79,0,*5A
1515679246.51,52958,11.44,73006.3,-6.09,-27.29,-28.69,0,*57
1515679247.74,52959,11.44,73006.8,-6.09,-27.29,-28.75,0,*5B
1515679249.02,52960,11.44,73004.8,-6.07,-27.39,-28.79,0,*52
1515679250.27,52961,11.44,73006.0,-6.11,-27.51,-28.79,0,*5A
1515679251.51,52962,11.44,73008.5,-6.09,-27.29,-28.75,0,*53
1515679252.77,52963,11.44,73004.3,-6.09,-27.23,-28.63,0,*5F
1515679254.01,52964,11.44,73008.0,-6.11,-27.29,-28.69,0,*51
1515679255.25,52965,11.44,73004.5,-6.09,-27.29,-28.63,0,*53
1515679256.49,52966,11.44,73006.3,-6.09,-27.29,-28.63,0,*50
1515679257.74,52967,11.44,73006.8,-6.09,-27.39,-28.75,0,*57
1515679259.02,52968,11.44,73008.3,-6.07,-27.45,-28.75,0,*5D
1515679260.31,52969,11.44,73004.8,-6.07,-27.23,-28.63,0,*5B
1515679261.56,52970,11.44,73004.3,-6.09,-27.45,-28.79,0,*56
1515679262.82,52971,11.44,73004.0,-6.09,-27.45,-28.79,0,*57
1515679264.09,52972,11.44,73006.0,-6.07,-27.39,-28.75,0,*5D
1515679265.35,52973,11.44,73004.8,-6.09,-27.39,-28.75,0,*52
1515679266.6,52974,11.44,73008.5,-6.09,-27.45,-28.75,0,*5E
1515679267.85,52975,11.44,73008.5,-6.09,-27.45,-28.79,0,*53
1515679269.1,52976,11.44,73004.0,-6.09,-27.39,-28.75,0,*57
1515679270.36,52977,11.44,73006.3,-6.09,-27.23,-28.59,0,*53
1515679271.6,52978,11.44,73004.5,-6.09,-27.29,-28.63,0,*5F
1515679272.87,52979,11.44,73006.3,-6.09,-27.61,-28.91,0,*5F
1515679274.1,52980,11.44,73004.3,-6.09,-27.55,-28.75,0,*54
1515679275.32,52981,11.44,73004.5,-6.09,-27.55,-28.79,0,*59
1515679276.55,52982,11.44,73006.8,-6.09,-27.55,-28.79,0,*5A
1515679277.84,52983,11.44,73002.8,-6.07,-27.61,-28.79,0,*52
1515679279.06,52984,11.44,73004.3,-6.09,-27.51,-28.79,0,*58
1515679280.3,52985,11.44,73006.3,-6.11,-27.51,-28.85,0,*53
1515679281.52,52986,11.44,73004.3,-6.09,-27.55,-28.75,0,*52
1515679282.79,52987,11.44,73006.0,-6.09,-27.39,-28.63,0,*5E
1515679284.05,52988,11.44,73002.5,-6.09,-27.39,-28.63,0,*51
1515679285.3,52989,11.44,73006.5,-6.09,-27.45,-28.75,0,*5C
1515679286.55,52990,11.44,73006.3,-6.09,-27.45,-28.75,0,*54
1515679287.82,52991,11.44,73004.8,-6.09,-27.39,-28.63,0,*59
1515679289.08,52992,11.44,73008.5,-6.09,-27.45,-28.63,0,*51
1515679290.33,52993,11.44,73004.8,-6.07,-27.55,-28.75,0,*58
1515679291.59,52994,11.44,73006.0,-6.09,-27.39,-28.59,0,*55
1515679292.85,52995,11.44,73004.5,-6.11,-27.35,-28.69,0,*52
1515679294.11,52996,11.44,73004.8,-6.09,-27.45,-28.63,0,*55
1515679295.32,52997,11.44,73002.8,-6.09,-27.29,-28.53,0,*5D
1515679296.56,52998,11.44,73004.8,-6.09,-27.55,-28.63,0,*5A
1515679297.79,52999,11.44,73002.0,-6.09,-27.55,-28.75,0,*5C
1515679299.07,53000,11.44,73004.3,-6.07,-27.39,-28.59,0,*5E
1515679300.36,53001,11.44,73004.0,-6.07,-27.45,-28.63,0,*5D
1515679301.65,53002,11.44,73000.5,-6.07,-27.61,-28.75,0,*5F
1515679302.93,53003,11.44,73004.5,-6.07,-27.45,-28.75,0,*58
1515679304.18,53004,11.44,73004.8,-6.07,-27.55,-28.75,0,*5E
1515679305.47,53005,11.44,73000.3,-6.07,-27.61,-28.75,0,*58
1515679306.75,53006,11.44,73000.5,-6.07,-27.39,-28.59,0,*58
1515679308.04,53007,11.44,73004.3,-6.07,-27.45,-28.63,0,*5B
1515679309.29,53008,11.44,73008.0,-6.07,-27.55,-28.75,0,*52
1515679310.57,53009,11.44,73006.8,-6.07,-27.45,-28.75,0,*52
1515679311.86,53010,11.44,73000.8,-6.07,-27.39,-28.59,0,*5F
1515679313.15,53011,11.44,73004.5,-6.07,-27.39,-28.63,0,*57
1515679314.43,53012,11.44,73004.8,-6.07,-27.61,-28.75,0,*5E
1515679315.7,53013,11.44,73004.5,-6.09,-27.45,-28.63,0,*50
1515679316.98,53014,11.44,73004.0,-6.07,-27.61,-28.75,0,*58
1515679318.19,53015,11.44,73004.3,-6.05,-27.55,-28.69,0,*51
1515679319.48,53016,11.44,73004.3,-6.07,-27.61,-28.75,0,*5A
1515679320.73,53017,11.44,73004.3,-6.07,-27.55,-28.79,0,*50
1515679322.02,53018,11.44,73004.5,-6.07,-27.61,-28.75,0,*54
1515679323.27,53019,11.44,73004.3,-6.07,-27.55,-28.75,0,*52
1515679324.56,53020,11.44,73002.5,-6.07,-27.45,-28.63,0,*5E
1515679325.84,53021,11.44,73004.5,-6.07,-27.61,-28.75,0,*5E
1515679327.07,53022,11.44,73006.0,-6.05,-27.39,-28.53,0,*56
1515679328.34,53023,11.44,73004.3,-6.07,-27.55,-28.63,0,*5C
1515679329.62,53024,11.44,73004.5,-6.07,-27.61,-28.75,0,*5B
1515679330.91,53025,11.44,73004.0,-6.07,-27.45,-28.63,0,*5B
1515679332.17,53026,11.44,73006.8,-6.07,-27.55,-28.59,0,*50
1515679333.44,53027,11.44,73004.3,-6.07,-27.29,-28.43,0,*51
1515679334.72,53028,11.44,73010.3,-6.07,-27.45,-28.75,0,*51
1515679335.92,53029,11.44,73004.3,-6.05,-27.55,-28.69,0,*5E
1515679337.15,53030,11.44,73004.3,-6.05,-27.39,-28.69,0,*5C
1515679338.41,53031,11.44,73010.8,-6.05,-27.39,-28.59,0,*5E
1515679339.64,53032,11.44,73008.3,-6.05,-27.55,-28.75,0,*59
1515679340.89,53033,11.44,73010.5,-6.07,-27.77,-28.79,0,*56
1515679342.12,53034,11.44,73006.5,-6.09,-27.71,-28.75,0,*55
1515679343.37,53035,11.44,73006.3,-6.07,-27.71,-28.75,0,*5A
1515679344.62,53036,11.44,73004.5,-6.07,-27.55,-28.75,0,*5F
1515679345.91,53037,11.44,73008.5,-6.07,-27.61,-28.75,0,*59
1515679347.2,53038,11.44,73006.8,-6.07,-27.61,-28.75,0,*56
1515679348.41,53039,11.44,73010.8,-6.05,-27.67,-28.69,0,*5E
1515679349.62,53040,11.44,73006.3,-6.05,-27.67,-28.69,0,*50
1515679350.85,53041,11.44,73008.3,-6.05,-27.51,-28.59,0,*57
1515679352.14,53042,11.44,73006.5,-6.07,-27.61,-28.75,0,*5B
1515679353.34,53043,11.44,73010.0,-6.05,-27.51,-28.69,0,*56
1515679354.57,53044,11.44,73004.5,-6.05,-27.55,-28.59,0,*56
1515679355.78,53045,11.44,73008.8,-6.05,-27.55,-28.69,0,*54
1515679357.03,53046,11.44,73010.5,-6.07,-27.77,-28.75,0,*58
1515679358.24,53047,11.44,73008.5,-6.05,-27.67,-28.69,0,*57
1515679359.45,53048,11.44,73008.0,-6.05,-27.55,-28.69,0,*59
1515679360.7,53049,11.44,73008.5,-6.07,-27.77,-28.79,0,*5B
1515679361.96,53050,11.44,73004.8,-6.07,-27.77,-28.79,0,*53
1515679363.21,53051,11.44,73010.0,-6.07,-27.77,-28.79,0,*52
1515679364.47,53052,11.44,73006.5,-6.07,-27.71,-28.79,0,*57
1515679365.72,53053,11.44,73004.5,-6.07,-27.71,-28.75,0,*5A
1515679366.97,53054,11.44,73004.5,-6.07,-27.77,-28.75,0,*5B
1515679368.24,53055,11.44,73006.3,-6.07,-27.23,-28.31,0,*5B
1515679369.5,53056,11.44,73006.5,-6.05,-27.23,-28.25,0,*5F
1515679370.76,53057,11.44,73008.0,-6.07,-27.55,-28.63,0,*5F
1515679371.99,53058,11.44,73004.5,-6.05,-27.55,-28.59,0,*5B
1515679373.22,53059,11.44,73010.0,-6.05,-27.35,-28.53,0,*56
1515679374.45,53060,11.44,73010.5,-6.05,-27.35,-28.53,0,*5C
1515679375.74,53061,11.44,73008.3,-6.07,-27.61,-28.79,0,*56
1515679376.99,53062,11.44,73006.8,-6.07,-27.77,-28.79,0,*52
1515679378.23,53063,11.44,73006.8,-6.05,-27.55,-28.63,0,*5A
1515679379.46,53064,11.44,73004.5,-6.05,-27.51,-28.59,0,*50
1515679380.75,53065,11.44,73008.3,-6.07,-27.61,-28.59,0,*50
1515679381.98,53066,11.44,73008.5,-6.01,-27.83,-28.85,0,*58
1515679383.19,53067,11.44,73010.0,-6.05,-27.71,-28.69,0,*52
1515679384.4,53068,11.44,73008.0,-6.05,-27.67,-28.69,0,*5A
1515679385.69,53069,11.44,73008.5,-6.07,-27.61,-28.59,0,*5C
1515679386.9,53070,11.44,73008.8,-6.05,-27.67,-28.69,0,*53
1515679388.13,53071,11.44,73008.3,-6.05,-27.71,-28.75,0,*58
1515679389.36,53072,11.44,73006.5,-6.05,-27.55,-28.59,0,*53
1515679390.59,53073,11.44,73008.8,-6.05,-27.71,-28.79,0,*56
1515679391.81,53074,11.44,73012.3,-6.05,-27.71,-28.75,0,*5D
1515679393.07,53075,11.44,73008.5,-6.07,-27.71,-28.75,0,*5E
1515679394.29,53076,11.44,73008.0,-6.05,-27.77,-28.79,0,*55
1515679395.54,53077,11.44,73010.3,-6.05,-27.83,-28.75,0,*53
1515679396.77,53078,11.44,73006.8,-6.05,-27.71,-28.75,0,*51
1515679398.02,53079,11.44,73006.5,-6.07,-27.71,-28.75,0,*52
1515679399.27,53080,11.44,73006.8,-6.07,-27.77,-28.79,0,*5E
1515679400.53,53081,11.44,73010.5,-6.07,-27.77,-28.75,0,*53
1515679401.73,53082,11.44,73008.0,-6.05,-27.55,-28.69,0,*5F
1515679402.97,53083,11.44,73008.8,-6.05,-27.67,-28.59,0,*5C
1515679404.21,53084,11.44,73010.3,-6.05,-27.67,-28.59,0,*5B
1515679405.46,53085,11.44,73008.3,-6.07,-27.77,-28.75,0,*57
1515679406.67,53086,11.44,73004.5,-6.05,-27.71,-28.69,0,*5D
1515679407.89,53087,11.44,73008.0,-6.05,-27.83,-28.69,0,*51
1515679409.1,53088,11.44,73006.8,-6.05,-27.67,-28.69,0,*54
1515679410.33,53089,11.44,73004.8,-6.05,-27.71,-28.75,0,*5F
1515679411.57,53090,11.44,73006.8,-6.05,-27.61,-28.69,0,*5B
1515679412.83,53091,11.44,73004.5,-6.07,-27.71,-28.63,0,*53
1515679414.07,53092,11.44,73004.0,-6.05,-27.67,-28.59,0,*5C
1515679415.33,53093,11.44,73010.8,-6.07,-27.71,-28.63,0,*51
1515679416.57,53094,11.44,73008.0,-6.05,-27.67,-28.59,0,*5A
1515679417.8,53095,11.44,73010.0,-6.05,-27.55,-28.59,0,*5A
1515679419.06,53096,11.44,73002.5,-6.07,-27.77,-28.75,0,*55
1515679420.27,53097,11.44,73002.8,-6.05,-27.67,-28.69,0,*5A
1515679421.48,53098,11.44,73006.8,-6.05,-27.67,-28.69,0,*55
1515679422.71,53099,11.44,73004.0,-6.05,-27.55,-28.59,0,*56
1515679424.01,53100,11.44,73002.3,-6.07,-27.61,-28.63,0,*5B
1515679425.26,53101,11.44,73004.3,-6.05,-27.39,-28.43,0,*57
1515679426.5,53102,11.44,73006.0,-6.05,-27.67,-28.59,0,*54
1515679427.73,53103,11.44,73006.0,-6.05,-27.35,-28.37,0,*5A
1515679428.93,53104,11.44,73002.8,-6.05,-27.55,-28.53,0,*59
1515679430.17,53105,11.44,73006.3,-6.05,-27.55,-28.59,0,*52
1515679431.37,53106,11.44,73000.8,-6.05,-27.55,-28.53,0,*5B
1515679432.58,53107,11.44,73002.5,-6.05,-27.67,-28.69,0,*52
1515679433.79,53108,11.44,73006.5,-6.05,-27.71,-28.69,0,*5A
1515679435.01,53109,11.44,73004.3,-6.05,-27.71,-28.75,0,*56
1515679436.24,53110,11.44,73006.0,-6.05,-27.83,-28.69,0,*5E
1515679437.5,53111,11.44,73002.8,-6.07,-27.77,-28.75,0,*5B
1515679438.73,53112,11.44,73004.5,-6.05,-27.67,-28.75,0,*5B
1515679439.96,53113,11.44,73006.3,-6.01,-27.61,-28.53,0,*5C
1515679441.23,53114,11.44,73006.5,-6.07,-27.71,-28.63,0,*5F
1515679442.45,53115,11.44,73004.0,-6.05,-27.89,-28.75,0,*5C
1515679443.71,53116,11.44,73004.5,-6.05,-28.05,-28.91,0,*5E
1515679444.92,53117,11.44,73006.3,-6.05,-27.89,-28.85,0,*51
1515679446.15,53118,11.44,73004.8,-6.05,-27.89,-28.75,0,*51
1515679447.4,53119,11.44,73000.3,-6.07,-27.77,-28.75,0,*53
1515679448.64,53120,11.44,73006.5,-6.05,-27.67,-28.59,0,*54
1515679449.93,53121,11.44,73004.8,-6.07,-27.61,-28.63,0,*58
1515679451.14,53122,11.44,73006.0,-6.05,-27.67,-28.69,0,*55
1515679452.4,53123,11.44,73006.0,-6.07,-27.93,-28.75,0,*50
1515679453.62,53124,11.44,73010.0,-6.05,-27.89,-28.75,0,*5E
1515679454.85,53125,11.44,73004.0,-6.05,-27.89,-28.75,0,*5F
1515679456.13,53126,11.44,73006.8,-6.07,-28.09,-28.91,0,*53
1515679457.37,53127,11.44,73004.5,-6.05,-27.93,-28.91,0,*5C
1515679458.63,53128,11.44,73010.3,-6.05,-28.05,-28.91,0,*53
1515679459.88,53129,11.44,73004.3,-6.05,-27.83,-28.75,0,*59
1515679461.11,53130,11.44,73006.8,-6.05,-27.93,-28.91,0,*5A
1515679462.39,53131,11.44,73010.5,-6.07,-28.09,-28.79,0,*53
1515679463.64,53132,11.44,73010.3,-6.07,-27.93,-28.79,0,*5C
1515679464.91,53133,11.44,73004.0,-6.07,-27.93,-28.91,0,*5B
1515679466.19,53134,11.44,73006.0,-6.07,-27.99,-28.91,0,*56
1515679467.42,53135,11.44,73002.0,-6.07,-27.93,-28.69,0,*5A
1515679468.68,53136,11.44,73010.3,-6.07,-27.93,-28.91,0,*5E
1515679469.9,53137,11.44,73008.8,-6.05,-27.93,-28.85,0,*58
1515679471.16,53138,11.44,73004.5,-6.05,-28.05,-28.91,0,*52
1515679472.43,53139,11.44,73010.5,-6.07,-27.99,-28.79,0,*5D
1515679473.69,53140,11.44,73006.5,-6.07,-27.93,-28.79,0,*59
1515679474.94,53141,11.44,73012.5,-6.07,-27.77,-28.75,0,*5E
1515679476.2,53142,11.44,73004.5,-6.07,-27.89,-28.79,0,*50
1515679477.45,53143,11.44,73008.5,-6.07,-27.77,-28.75,0,*5C
1515679478.71,53144,11.44,73010.8,-6.07,-27.71,-28.63,0,*5A
1515679479.97,53145,11.44,73004.8,-6.07,-27.71,-28.59,0,*52
1515679481.23,53146,11.44,73006.8,-6.07,-27.71,-28.59,0,*51
1515679482.5,53147,11.44,73006.0,-6.07,-27.71,-28.63,0,*59
1515679483.7,53148,11.44,73010.0,-6.05,-27.51,-28.37,0,*57
1515679484.91,53149,11.44,73008.5,-6.05,-27.55,-28.53,0,*50
1515679486.17,53150,11.44,73010.8,-6.07,-27.89,-28.63,0,*58
1515679487.4,53151,11.44,73008.8,-6.05,-27.83,-28.69,0,*5B
1515679488.66,53152,11.44,73008.5,-6.07,-27.93,-28.79,0,*5A
1515679489.91,53153,11.44,73008.8,-6.07,-27.71,-28.75,0,*5B
1515679491.16,53154,11.44,73006.0,-6.07,-27.93,-28.79,0,*5C
1515679492.37,53155,11.44,73006.0,-6.05,-27.71,-28.69,0,*52
1515679493.62,53156,11.44,73008.5,-6.07,-27.89,-28.75,0,*59
1515679494.88,53157,11.44,73006.3,-6.07,-27.93,-28.75,0,*53
1515679496.08,53158,11.44,73006.8,-6.05,-27.71,-28.69,0,*5F
1515679497.34,53159,11.44,73006.0,-6.07,-27.77,-28.75,0,*57
1515679498.57,53160,11.44,73006.0,-6.05,-27.67,-28.59,0,*50
1515679499.83,53161,11.44,73006.3,-6.05,-27.83,-28.59,0,*5B
1515679501.09,53162,11.44,73004.8,-6.07,-27.77,-28.63,0,*58
1515679502.3,53163,11.44,73004.5,-6.05,-27.71,-28.53,0,*5E
1515679503.51,53164,11.44,73008.8,-6.05,-27.55,-28.53,0,*5F
1515679504.71,53165,11.44,73004.5,-6.05,-27.51,-28.37,0,*58
1515679505.92,53166,11.44,73008.8,-6.05,-27.51,-28.37,0,*5B
1515679507.15,53167,11.44,73012.0,-6.05,-27.55,-28.43,0,*5D
1515679508.38,53168,11.44,73012.8,-6.05,-27.71,-28.59,0,*5F
1515679509.64,53169,11.44,73010.8,-6.07,-27.93,-28.79,0,*52
1515679510.85,53170,11.44,73010.8,-6.05,-27.89,-28.85,0,*50
1515679512.1,53171,11.44,73006.3,-6.05,-28.09,-28.91,0,*53
1515679513.31,53172,11.44,73004.0,-6.05,-27.71,-28.69,0,*57
1515679514.52,53173,11.44,73004.5,-6.05,-27.67,-28.53,0,*58
1515679515.78,53174,11.44,73000.8,-6.07,-27.71,-28.63,0,*59
1515679517.02,53175,11.44,73002.3,-6.05,-27.71,-28.59,0,*53
1515679518.28,53176,11.44,73006.8,-6.07,-27.71,-28.59,0,*52
1515679519.49,53177,11.44,73008.5,-6.05,-27.67,-28.53,0,*5C
1515679520.71,53178,11.44,73004.0,-6.05,-27.89,-28.75,0,*57
1515679521.92,53179,11.44,73006.3,-6.05,-27.71,-28.53,0,*55
1515679523.15,53180,11.44,73004.8,-6.05,-27.71,-28.59,0,*59
1515679524.42,53181,11.44,73004.5,-6.07,-27.77,-28.63,0,*55
1515679525.68,53182,11.44,73010.0,-6.07,-27.89,-28.63,0,*57
1515679526.95,53183,11.44,73004.5,-6.07,-27.93,-28.63,0,*5D
1515679528.18,53184,11.44,73000.5,-6.05,-27.89,-28.59,0,*5A
1515679529.41,53185,11.44,73006.8,-6.05,-27.83,-28.69,0,*52
1515679530.61,53186,11.44,73006.8,-6.05,-27.55,-28.53,0,*53
1515679531.85,53187,11.44,73006.5,-6.05,-27.71,-28.59,0,*5E
1515679533.06,53188,11.44,73006.8,-6.05,-27.67,-28.53,0,*5C
1515679534.29,53189,11.44,73006.3,-6.05,-27.55,-28.43,0,*5D
1515679535.52,53190,11.44,73004.0,-6.05,-27.55,-28.43,0,*55
1515679536.75,53191,11.44,73006.3,-6.05,-27.55,-28.43,0,*54
1515679537.98,53192,11.44,73006.5,-6.01,-27.45,-28.37,0,*51
1515679539.19,53193,11.44,73008.3,-6.01,-27.51,-28.31,0,*53
1515679540.42,53194,11.44,73006.5,-6.01,-27.35,-28.15,0,*50
1515679541.67,53195,11.44,73008.0,-6.01,-27.35,-28.21,0,*56
1515679542.91,53196,11.44,73004.5,-6.01,-27.45,-28.15,0,*55
1515679544.14,53197,11.44,73006.5,-5.99,-27.51,-28.31,0,*55
1515679545.35,53198,11.44,73008.0,-6.01,-27.67,-28.53,0,*59
1515679546.58,53199,11.44,73004.0,-5.99,-27.77,-28.53,0,*5B
1515679547.83,53200,11.44,73002.5,-5.99,-27.51,-28.47,0,*59
1515679549.08,53201,11.44,73006.5,-5.99,-27.45,-28.37,0,*5A
1515679550.29,53202,11.44,73008.0,-6.01,-27.67,-28.53,0,*59
1515679551.55,53203,11.44,73010.0,-5.99,-27.67,-28.63,0,*59
1515679552.8,53204,11.44,73006.8,-6.01,-27.83,-28.63,0,*56
1515679554.09,53205,11.44,73008.8,-5.99,-27.61,-28.47,0,*5F
1515679555.32,53206,11.44,73006.5,-5.99,-27.67,-28.53,0,*5F
1515679556.57,53207,11.44,73006.8,-6.01,-27.83,-28.63,0,*55
1515679557.83,53208,11.44,73006.0,-5.99,-27.77,-28.63,0,*53
1515679559.09,53209,11.44,73010.0,-5.99,-27.67,-28.63,0,*53
1515679560.34,53210,11.44,73006.0,-5.99,-27.51,-28.47,0,*58
1515679561.55,53211,11.44,73004.0,-6.01,-27.51,-28.31,0,*5A
1515679562.83,53212,11.44,73006.3,-5.99,-27.61,-28.47,0,*59
1515679564.07,53213,11.44,73006.8,-5.99,-27.67,-28.53,0,*5B
1515679565.33,53214,11.44,73006.5,-5.99,-27.61,-28.53,0,*5A
1515679566.56,53215,11.44,73006.0,-6.01,-27.61,-28.53,0,*59
1515679567.8,53216,11.44,73006.3,-5.99,-27.67,-28.53,0,*5E
1515679569.06,53217,11.44,73008.8,-6.01,-27.61,-28.47,0,*5E
1515679570.34,53218,11.44,73006.3,-5.99,-27.61,-28.47,0,*53
1515679571.62,53219,11.44,73006.8,-5.99,-27.61,-28.47,0,*52
1515679572.85,53220,11.44,73010.0,-5.99,-27.77,-28.53,0,*5A
1515679574.14,53221,11.44,73010.0,-5.99,-27.61,-28.47,0,*59
1515679575.4,53222,11.44,73008.5,-5.99,-27.61,-28.37,0,*5D
1515679576.68,53223,11.44,73010.5,-5.99,-27.61,-28.47,0,*5B
1515679577.91,53224,11.44,73012.3,-5.99,-27.51,-28.37,0,*58
1515679579.17,53225,11.44,73006.5,-5.97,-27.61,-28.43,0,*57
1515679580.39,53226,11.44,73008.3,-5.97,-27.71,-28.47,0,*51
1515679581.62,53227,11.44,73010.0,-5.97,-27.71,-28.47,0,*50
1515679582.85,53228,11.44,73008.8,-5.97,-27.55,-28.47,0,*59
1515679584.13,53229,11.44,73002.8,-5.99,-27.61,-28.47,0,*51
1515679585.41,53230,11.44,73008.0,-5.99,-27.61,-28.47,0,*59
1515679586.67,53231,11.44,73008.3,-5.99,-27.89,-28.63,0,*58
1515679587.95,53232,11.44,73006.5,-5.99,-27.83,-28.63,0,*51
1515679589.2,53233,11.44,73008.8,-5.99,-27.83,-28.69,0,*5A
1515679590.42,53234,11.44,73008.3,-5.99,-27.89,-28.69,0,*57
1515679591.68,53235,11.44,73010.5,-5.97,-27.83,-28.63,0,*58
1515679592.9,53236,11.44,73006.5,-5.97,-27.71,-28.47,0,*50
1515679594.14,53237,11.44,73006.5,-5.95,-27.71,-28.47,0,*53
1515679595.36,53238,11.44,73008.3,-5.97,-27.71,-28.47,0,*5E
1515679596.6,53239,11.44,73006.8,-5.97,-27.77,-28.59,0,*56
1515679597.83,53240,11.44,73008.8,-5.97,-27.71,-28.59,0,*5E
1515679599.06,53241,11.44,73010.5,-5.97,-27.77,-28.63,0,*50
1515679600.27,53242,11.44,73010.8,-5.97,-27.55,-28.31,0,*54
1515679601.5,53243,11.44,73004.8,-5.95,-27.55,-28.43,0,*52
1515679602.73,53244,11.44,73010.5,-5.97,-27.55,-28.43,0,*57
1515679603.99,53245,11.44,73006.5,-5.97,-27.61,-28.47,0,*55
1515679605.22,53246,11.44,73008.0,-5.97,-27.71,-28.47,0,*57
1515679606.44,53247,11.44,73006.8,-5.97,-27.55,-28.47,0,*50
1515679607.68,53248,11.44,73008.8,-5.97,-27.45,-28.31,0,*5F
1515679608.93,53249,11.44,73004.3,-5.97,-27.45,-28.43,0,*5B
1515679610.19,53250,11.44,73008.5,-5.97,-27.61,-28.47,0,*51
1515679611.42,53251,11.44,73006.5,-5.97,-27.55,-28.43,0,*53
1515679612.67,53252,11.44,73006.0,-5.97,-27.61,-28.47,0,*53
1515679613.93,53253,11.44,73008.5,-5.97,-27.61,-28.47,0,*52
1515679615.16,53254,11.44,73012.0,-5.97,-27.77,-28.47,0,*52
1515679616.42,53255,11.44,73010.5,-5.97,-27.61,-28.43,0,*50
1515679617.69,53256,11.44,73006.3,-5.95,-27.61,-28.43,0,*51
1515679618.93,53257,11.44,73010.5,-5.95,-27.77,-28.63,0,*55
1515679620.17,53258,11.44,73008.3,-5.95,-27.71,-28.59,0,*55
1515679621.4,53259,11.44,73000.8,-5.97,-27.71,-28.59,0,*56
1515679622.67,53260,11.44,73004.3,-5.95,-27.61,-28.47,0,*50
1515679623.93,53261,11.44,73008.0,-5.97,-27.45,-28.25,0,*51
1515679625.19,53262,11.44,73004.5,-5.97,-27.61,-28.43,0,*54
1515679626.46,53263,11.44,73010.0,-5.95,-27.61,-28.47,0,*53
1515679627.69,53264,11.44,73008.5,-5.95,-27.71,-28.47,0,*55
1515679628.93,53265,11.44,73006.8,-5.95,-27.71,-28.59,0,*5B
1515679630.17,53266,11.44,73004.3,-5.95,-27.71,-28.47,0,*57
1515679631.38,53267,11.44,73006.8,-5.95,-27.55,-28.31,0,*51
1515679632.65,53268,11.44,73008.0,-5.95,-27.61,-28.43,0,*5C
1515679633.89,53269,11.44,73012.3,-5.95,-27.71,-28.47,0,*58
1515679635.13,53270,11.44,73010.0,-5.95,-27.77,-28.59,0,*59
1515679636.37,53271,11.44,73008.3,-5.95,-27.77,-28.59,0,*58
1515679637.6,53272,11.44,73006.5,-5.97,-27.93,-28.63,0,*5A
1515679638.86,53273,11.44,73010.3,-5.95,-27.83,-28.59,0,*51
1515679640.1,53274,11.44,73010.0,-5.95,-27.77,-28.59,0,*5D
1515679641.37,53275,11.44,73004.8,-5.95,-27.83,-28.63,0,*5E
1515679642.62,53276,11.44,73006.3,-5.97,-27.99,-28.63,0,*54
1515679643.9,53277,11.44,73008.0,-5.93,-27.99,-28.75,0,*56
1515679645.14,53278,11.44,73010.8,-5.97,-27.93,-28.63,0,*50
1515679646.37,53279,11.44,73002.3,-5.95,-27.93,-28.75,0,*54
1515679647.6,53280,11.44,73006.0,-5.97,-27.93,-28.63,0,*57
1515679648.85,53281,11.44,73008.8,-5.95,-27.93,-28.63,0,*54
1515679650.07,53282,11.44,73004.8,-5.97,-27.93,-28.75,0,*52
1515679651.32,53283,11.44,73010.5,-5.97,-27.83,-28.63,0,*55
1515679652.58,53284,11.44,73008.0,-5.95,-27.83,-28.59,0,*59
1515679653.83,53285,11.44,73006.3,-5.97,-27.83,-28.47,0,*55
1515679655.06,53286,11.44,73008.8,-5.97,-27.93,-28.59,0,*58
1515679656.3,53287,11.44,73010.8,-5.97,-27.93,-28.63,0,*50
1515679657.52,53288,11.44,73010.8,-5.97,-27.71,-28.47,0,*55
1515679658.75,53289,11.44,73006.0,-5.97,-27.77,-28.59,0,*5D
1515679660.0,53290,11.44,73008.3,-5.95,-27.77,-28.59,0,*57
1515679661.25,53291,11.44,73008.5,-5.97,-27.83,-28.59,0,*5F
1515679662.5,53292,11.44,73012.3,-5.97,-27.83,-28.63,0,*55
1515679663.75,53293,11.44,73008.8,-5.97,-27.83,-28.59,0,*5D
1515679664.99,53294,11.44,73010.5,-5.95,-27.71,-28.59,0,*55
1515679666.22,53295,11.44,73006.8,-5.97,-27.71,-28.59,0,*56
1515679667.46,53296,11.44,73010.3,-5.95,-27.77,-28.59,0,*51
1515679668.69,53297,11.44,73004.5,-5.97,-27.71,-28.59,0,*54
1515679669.92,53298,11.44,73010.5,-5.97,-27.77,-28.59,0,*5D
1515679671.18,53299,11.44,73010.8,-5.97,-27.61,-28.47,0,*54
1515679672.45,53300,11.44,73010.5,-5.95,-27.61,-28.47,0,*57
1515679673.68,53301,11.44,73010.0,-5.97,-27.77,-28.47,0,*53
1515679674.94,53302,11.44,73006.8,-5.95,-27.83,-28.63,0,*5F
1515679676.17,53303,11.44,73008.5,-5.97,-27.77,-28.63,0,*57
1515679677.41,53304,11.44,73010.8,-5.95,-27.77,-28.47,0,*54
1515679678.64,53305,11.44,73006.5,-5.97,-27.71,-28.47,0,*51
1515679679.88,53306,11.44,73008.3,-5.95,-27.71,-28.59,0,*5F
1515679681.13,53307,11.44,73010.3,-5.97,-27.83,-28.63,0,*58
1515679682.38,53308,11.44,73006.5,-5.97,-27.83,-28.59,0,*5E
1515679683.62,53309,11.44,73010.8,-5.95,-27.71,-28.47,0,*5F
1515679684.88,53310,11.44,73008.5,-5.95,-27.99,-28.63,0,*57
1515679686.11,53311,11.44,73008.5,-5.97,-27.93,-28.59,0,*57
1515679687.35,53312,11.44,73004.3,-5.97,-27.93,-28.59,0,*54
1515679688.58,53313,11.44,73010.0,-5.97,-27.93,-28.63,0,*5C
1515679689.84,53314,11.44,73010.3,-5.95,-27.83,-28.59,0,*51
1515679691.1,53315,11.44,73004.5,-5.95,-27.83,-28.59,0,*50
1515679692.33,53316,11.44,73006.3,-5.97,-27.93,-28.59,0,*50
1515679693.57,53317,11.44,73008.5,-5.95,-27.93,-28.59,0,*53
1515679694.83,53318,11.44,73004.5,-5.95,-27.83,-28.59,0,*5D
1515679696.09,53319,11.44,73004.8,-5.95,-27.83,-28.59,0,*5C
1515679697.34,53320,11.44,73006.3,-5.97,-27.83,-28.59,0,*54
1515679698.57,53321,11.44,73010.0,-5.97,-27.93,-28.59,0,*54